{"data":{"norad_id":67443,"epoch":"2026-05-25T00:48:56.672928Z","epoch_age_seconds":71974,"freshness":"FRESH","line1":"1 67443U 26007J   26145.03398927 -.00000081  00000+0  92203-4 0  9997","line2":"2 67443  50.0072 168.5376 0000843 280.5751  79.5026 13.29324627 17713","mean_motion":13.29324627,"eccentricity":8.43e-5,"inclination_deg":50.0072,"raan_deg":168.5376,"arg_perigee_deg":280.5751,"mean_anomaly_deg":79.5026,"bstar":9.2203e-5,"rev_number":1771,"period_min":108.32568439282,"perigee_km":1148.6771910962,"apogee_km":1149.9463189563,"semimajor_km":7527.4487550263,"source":"CELESTRAK","updated_at":"2026-05-25T13:38:07.007534Z"}}